SCOUT A R/B, 2413

Orbit data source: Space-Track

SCOUT A R/B, 2413 is space debris in LEO originally from a launch on Thu, 18 Aug 1966 UTC launched from the Air Force Western Test Range (AFWTR). Debris objects in space refer to the collection of defunct objects orbiting the Earth. Examples of debris include non-operational satellites, rocket bodies, and fragments generated from explosions, collisions, or faulty payload assembly.

Loading next visibility...
Identifier
2413, 1966-076B
Orbit
LEO
Last TLE update
14 hours ago
Origin
Manufacturer
ABL
Mission
Spacecraft
Bus & Motor
ALTAIR, Unknown motor
Mass
33 kg wet, 33 kg dry
Launch date (UTC)
1966-08-18 (59 years ago)
Launch vehicle
Unknown
Launch site
Air Force Western Test Range (AFWTR)
Object type
Payload
Rocket body
Debris
Shape & HBR
Cyl, 1.5 m
Radar Cross Section
0.687 m², Medium (>0.1 m² and < 1m²)

Expand to show TLE details & history

TLE from 14 hours ago
0 SCOUT A R/B
1 02413U 66076B   25182.25972348  .00000061  00000-0  74131-4 0  9990
2 02413  88.8547 112.6971 0032604   5.1791 354.9691 13.51814818901240
Epoch: 2025-07-01T06:14Z
TLE epoch observation values (Epoch: 2025-07-01T06:14:00.108Z)
Latitude
-0.00007°
Longitude
99.63891°
Altitude
1,044.363 km
Speed
7.342 km/s
True Right ascension
07h 30m 47s
True Declination
0° 00' 00"
Sunlit
Object was in daylight at epoch
Visualization orbit readout
Latitude
31.84689°
Longitude
100.27745°
Altitude
1,048.338 km
Speed
7.341 km/s
Apparent Right ascension
05h 28m 26s
Apparent Declination
-5° 35' 22"
Sunlit
Object is in daylight
Visualization observer readout
Local Sidereal Time
08:16:08
Azimuth
230.412° WSW
Elevation
30.362°
Doppler factor
1
Orbital elements
Apogee altitude
1,086.899 km
Perigee altitude
1,038.38 km
Semi-major axis
7,440.777 km
Eccentricity
0.00326
Inclination
88.8547°
RAAN
112.6971°
Arg. of periapsis
5.1791°
True anomaly
Unknown
Mean anomaly
354.9691°
Eccentric anomaly
Unknown
Mean motion
3.38155 °/min
Orbital period
106.46 mins
BSTAR
0.000074131
Loading maneuver chart data...
Loading SW <> Apogee altitude chart data...
Loading historical data...
Loading historical data...
Loading historical data...
Loading historical data...
Loading historical data...
Loading historical data...
Loading historical data...

SCOUT A R/B Visibility forecast

Observer location: undefined°, undefined°

Span
Click to sort rows by Start time (UTC) header in descending order
Start Az.
Max El. time (UTC)
Max El. Az.
Max El.
End time (UTC)
End Az.
8 mins2025-07-01 20:36:00.910Z230.108° WSW2025-07-01 20:38:00.910Z264.6° W33.205°2025-07-01 20:44:00.910Z342.787° N
5 mins2025-07-02 05:58:00.910Z52.87° ENE2025-07-02 06:00:00.910Z71.953° E13.959°2025-07-02 06:03:00.910Z100.273° ESE
12 mins2025-07-02 07:42:00.910Z359.53° N2025-07-02 07:48:00.910Z203.511° SW44.463°2025-07-02 07:54:00.910Z184.629° SSW
11 mins2025-07-02 19:39:00.910Z172.898° S2025-07-02 19:44:00.910Z92.588° ESE44.716°2025-07-02 19:50:00.910Z1.47° NNE
|